FREGAT DEB, 45638

Orbit data source: Space-Track

FREGAT DEB, 45638 is space debris in LEO originally from a launch on Mon, 18 Jul 2011 UTC launched from the Tyuratam Missile And Space Complex (TTMTR). Debris objects in space refer to the collection of defunct objects orbiting the Earth. Examples of debris include non-operational satellites, rocket bodies, and fragments generated from explosions, collisions, or faulty payload assembly.

Loading next visibility...
Identifier
45638, 2011-037AE
Orbit
LEO
Country
Flag of CISCIS
Related business
Manufacturer
Lavochkin
Mission
Spacecraft
Bus & Motor
Unknown
Mass
Unknown
Launch date (UTC)
2011-07-18 (14 years ago)
Launch vehicle
Unknown
Launch site
Tyuratam Missile And Space Complex (TTMTR)
Object type
Payload
Rocket body
Debris
Shape & HBR
Unknown
Radar Cross Section
Small (<0.1 m²)

Expand to show TLE details & history
Last TLE update: 17 hours ago

TLE from 17 hours ago
0 FREGAT DEB
1 45638U 11037AE  25241.74971617  .00133865  00000-0  93084-2 0  9996
2 45638  51.4040  49.4985 1277906 149.3159 218.9216 12.79614445227457
Epoch: 2025-08-29T17:59Z
TLE epoch observation values (Epoch: 2025-08-29T17:59:35.477Z)
Latitude
-0°
Longitude
161.40678°
Altitude
2,154.422 km
Speed
6.468 km/s
True Right ascension
03h 17m 59s
True Declination
0° 00' 00"
Sunlit
Object was in daylight at epoch
Visualization orbit readout
Latitude
Unknown
Longitude
Unknown
Altitude
Unknown
Speed
Unknown
Apparent Right ascension
Unknown
Apparent Declination
Unknown
Sunlit
N/A
Visualization observer readout
Local Sidereal Time
02:45:29
Azimuth
Unknown
Elevation
Unknown
Doppler factor
Unknown
Orbital elements
Apogee altitude
2,330.269 km
Perigee altitude
356.76 km
Semi-major axis
7,721.652 km
Eccentricity
0.12779
Inclination
51.404°
RAAN
49.4985°
Arg. of periapsis
149.3159°
True anomaly
210.76934°
Mean anomaly
218.9216°
Eccentric anomaly
214.74834°
Mean motion
3.19873 °/min
Orbital period
112.54 mins
BSTAR
0.0093084
Loading maneuver chart data...
Computing Atmospheric mass density...
Loading historical data...
Loading historical data...
Loading historical data...
Loading historical data...
Loading historical data...
Loading historical data...
Loading historical data...

Documentation

Showing up to 5 results
|